DIRECTV 9S

Last updated on Wed Jul 02 2025 00:02:44 GMT+0000 (Coordinated Universal Time)

1 29494U 06043A 25182.54720690 -.00000110 00000+0 00000+0 0 9993 2 29494 1.5150 85.2847 0002964 18.5807 271.7543 1.00271268 47867
UTC large
Height (km)
Speed (km/s)
/
Latitude / Longitude
Inclination (degrees)
Orbital Period (minutes)
Azimuth
Elevation
Range (km)
Doppler Factor

Next 0 passes for location: London (51.5072 / 0.1276)

Sorry there are no passes over London.